STARLINK-5741, 55582

Orbit data source: Space-Track

STARLINK-5741, 55582 is a payload satellite owned by SpaceX/Seattle (US) in LEO that was launched on Sun, 12 Feb 2023 UTC via an FALCON 9 launch vehicle from the Air Force Eastern Test Range (AFETR). Payload-class satellites include a variety of spacecraft equipped with specific instruments for various scientific and technological missions. These include communications satellites like Starlink; space stations such as the ISS; scientific satellites like the Hubble; Earth observation satellites from companies like Planet Labs, Umbra, and HawkEye 360; GPS; miniature CubeSats for education and research; and military/defense satellites.

Loading next visibility...
Identifier
55582, 2023-020P
Orbit
LEO
Country
Flag of USUS
Related business
Manufacturer
SpaceX/Seattle
Mission
Partially operational Commercial Communications
Bus & Motor
STARLINK, Unknown motor
Mass
305 kg wet, ~290 kg dry
Launch date (UTC)
2023-02-12 (4 years ago)
Launch vehicle
FALCON 9
Launch site
Air Force Eastern Test Range (AFETR)
Object type
Payload
Rocket body
Debris
Shape & HBR
Box + 1 Pan, 10.1 m
Radar Cross Section
13.562 m², Large (>1 m²)

Expand to show TLE details & history
Last TLE update: 19 hours ago

TLE from 19 hours ago
0 STARLINK-5741
1 55582U 23020P   26263.63366874 -.00000520  00000-0 -93763-5 0  9996
2 55582  43.0049 333.2823 0001253 286.4983  73.5731 15.27575374198855
Epoch: 2026-09-20T15:12Z
TLE epoch observation values (Epoch: 2026-09-20T15:12:28.979Z)
Latitude
-0°
Longitude
105.63651°
Altitude
482.596 km
Speed
7.626 km/s
True Right ascension
22h 13m 07s
True Declination
0° 00' 00"
Sunlit
Object was in full shadow at epoch
Visualization orbit readout
Latitude
Unknown
Longitude
Unknown
Altitude
Unknown
Speed
Unknown
Apparent Right ascension
Unknown
Apparent Declination
Unknown
Sunlit
N/A
Visualization observer readout
Local Sidereal Time
03:13:56
Azimuth
Unknown
Elevation
Unknown
Doppler factor
Unknown
Orbital elements
Apogee altitude
485.867 km
Perigee altitude
484.147 km
Semi-major axis
6,863.144 km
Eccentricity
0.00013
Inclination
43.0049°
RAAN
333.2823°
Arg. of periapsis
286.4983°
True anomaly
73.58687°
Mean anomaly
73.5731°
Eccentric anomaly
73.57999°
Mean motion
3.81732 °/min
Orbital period
94.31 mins
BSTAR
-0.0000093763
Loading maneuver chart data...
Computing Atmospheric mass density...
Loading historical data...
Loading historical data...
Loading historical data...
Loading historical data...
Loading historical data...
Loading historical data...
Loading historical data...

Documentation

Showing up to 5 results
|